OBJECT C, 64623

Orbit data source: Space-Track

You're viewing an Uncataloged Satellite

Recently launched and/or uncataloged satellites may have evolving metadata. Metadata may include but not limited to: Owner, Maufacturer, Bus, Motor, and Mission.

OBJECT C, 64623 is a satellite owned by HawkEye 360 (US) in SSO that was launched on Thu, 26 Jun 2025 UTC via an ELECTRON launch vehicle from the Rocket Lab Launch Complex (RLLC). Unknown objects in Earth's orbit typically refer to objects detected orbiting the Earth but have not yet been identified or cataloged. These objects could be anything from previously untracked satellites, spent rocket stages, debris from satellite collisions, or even natural meteoroids temporarily captured by Earth's gravity.

Loading next visibility...
Identifier
64623, 2025-137C
Orbit
SSO
Last TLE update
11 hours ago
Origin
Manufacturer
UTIAS-SFL
Mission
Operational spacecraft
Bus & Motor
HAWK2G, Unknown motor
Mass
31 kg wet, 30 kg dry
Launch date (UTC)
2025-06-26 (5 days ago)
Launch vehicle
ELECTRON
Launch site
Rocket Lab Launch Complex (RLLC)
Object type
Unknown
Shape & HBR
Unknown
Radar Cross Section
RCS unknown

Expand to show TLE details & history

TLE from 11 hours ago
0 OBJECT C
1 64623U 25138C   25181.98402690  .00002262  00000-0  12522-3 0  9992
2 64623  97.4350 186.5117 0013620 279.3033  80.6660 15.14781945   640
Epoch: 2025-06-30T23:36Z
TLE epoch observation values (Epoch: 2025-06-30T23:36:59.924Z)
Latitude
0.00011°
Longitude
-87.024°
Altitude
523.211 km
Speed
7.602 km/s
True Right ascension
12h 26m 02s
True Declination
0° 00' 00"
Sunlit
Object was in daylight at epoch
Visualization orbit readout
Latitude
-31.81474°
Longitude
-81.95955°
Altitude
527.681 km
Speed
7.601 km/s
Apparent Right ascension
11h 36m 48s
Apparent Declination
-37° 04' 35"
Sunlit
Object is in daylight
Visualization observer readout
Local Sidereal Time
22:12:53
Azimuth
273.128° WNW
Elevation
-73.378°
Doppler factor
1
Orbital elements
Apogee altitude
528.008 km
Perigee altitude
509.221 km
Semi-major axis
6,896.752 km
Eccentricity
0.00136
Inclination
97.435°
RAAN
186.5117°
Arg. of periapsis
279.3033°
True anomaly
Unknown
Mean anomaly
80.666°
Eccentric anomaly
Unknown
Mean motion
3.78945 °/min
Orbital period
95 mins
BSTAR
0.00012522
Loading maneuver chart data...
Loading SW <> Apogee altitude chart data...
Loading historical data...
Loading historical data...
Loading historical data...
Loading historical data...
Loading historical data...
Loading historical data...
Loading historical data...
Other satellites on launch #137 in the year 2025 (2025-06-26 UTC)

OBJECT C Visibility forecast

Observer location: undefined°, undefined°

Span
Click to sort rows by Start time (UTC) header in descending order
Start Az.
Max El. time (UTC)
Max El. Az.
Max El.
End time (UTC)
End Az.
7 mins2025-07-01 12:51:25.527Z23.185° NE2025-07-01 12:55:25.527Z117.325° SE36.617°2025-07-01 12:58:25.527Z174.049° S
4 mins2025-07-01 23:33:25.527Z105.919° ESE2025-07-01 23:35:25.527Z63.813° ENE20.296°2025-07-01 23:37:25.527Z26.34° NE
4 mins2025-07-02 01:07:25.527Z225.144° WSW2025-07-02 01:09:25.527Z269.146° W21.795°2025-07-02 01:11:25.527Z309.162° NW
|